Location: Banff
(51.1667°N, 115.5667°W)
Time: 21:59:08
(UTC+00:00)

deb Explorer IX - Pass Details

Date: 04 December 2020
Orbit: 536 x 1104 km, 38.8° (Epoch: 23 January)

Event Time Altitude Azimuth Distance (km) Brightness Sun altitude
Rises 02:58:10 0° 259° (W) 3,431 ? -30.5°
Reaches altitude 10° 03:02:51 10° 227° (SW) 2,322 ? -31.2°
Maximum altitude 03:04:24 11° 210° (SSW) 2,182 ? -31.5°
Enters shadow 03:05:35 10° 196° (SSW) 2,190 ? -31.6°
